Hourly Weather Roundup
Issued by NWS Central Illinois

Home | Current Version | Previous Version | Text Only | Print | Product List | Glossary On
Versions: 1 2 3 4 5 6 7 8 9 10 11 12 13 14 15 16 17 18 19 20 21 22 23 24 25 26 27 28 29 30 31 32 33 34 35 36 37 38 39 40 41 42 43 44 45 46 47 48 49 50
161
NZUS43 KILX 241210
HWRILX

AREA WEATHER ROUNDUP
NATIONAL WEATHER SERVICE, LINCOLN IL
700 AM CDT FRI MAR 24 2017


CITY           SKY/WX    TMP DP  RH WIND       PRES   REMARKS
BLOOMINGTON    CLEAR     47  43  86 S15       30.00R
6HR MIN TEMP:  45; 6HR MAX TEMP:  51;

CHAMPAIGN      PTCLDY    51  44  77 S7        30.05R
6HR MIN TEMP:  49; 6HR MAX TEMP:  54;

DECATUR        CLEAR     50  45  83 S7        30.03R
6HR MIN TEMP:  48; 6HR MAX TEMP:  54;

EFFINGHAM      CLEAR     53  49  86 SE8       30.05R
6HR MIN TEMP:  50; 6HR MAX TEMP:  54;

FLORA          PTCLDY    52  49  87 S8        30.06R
6HR MIN TEMP:  47; 6HR MAX TEMP:  55;

GALESBURG      CLOUDY    46  43  87 SE7       29.90R
6HR MIN TEMP:  46; 6HR MAX TEMP:  49;

JACKSONVILLE   CLEAR     52  46  79 S8        29.97S
6HR MIN TEMP:  49; 6HR MAX TEMP:  52;

LACON          CLEAR     50  44  80 S8        29.93S
6HR MIN TEMP:  46; 6HR MAX TEMP:  52;

LAWRENCEVILLE  CLOUDY    52  48  86 S7        30.09R
6HR MIN TEMP:  52; 6HR MAX TEMP:  56;

LITCHFIELD     CLEAR     45  43  95 S5        30.04R
6HR MIN TEMP:  45; 6HR MAX TEMP:  52;

$$


CITY           SKY/WX    TMP DP  RH WIND       PRES   REMARKS
LINCOLN        CLEAR     47  45  91 S5        30.00R
6HR MIN TEMP:  44; 6HR MAX TEMP:  49;

MACOMB         CLOUDY    48  45  87 S14       29.92F
6HR MIN TEMP:  42; 6HR MAX TEMP:  49;

MATTOON        CLEAR     55  48  77 S10G21    30.02R
6HR MIN TEMP:  49; 6HR MAX TEMP:  56;

MT CARMEL AP   PTCLDY    53  47  80 S7        30.08R
6HR MIN TEMP:  53; 6HR MAX TEMP:  55;

OLNEY-NOBLE AP CLEAR     54  52  94 S10       30.07R
PARIS          CLOUDY    55  48  77 S13       30.05R
6HR MIN TEMP:  51; 6HR MAX TEMP:  56;

PEORIA         CLEAR     48  43  82 S12       29.95S
6HR MIN TEMP:  45; 6HR MAX TEMP:  48;

PONTIAC        PTCLDY    53  47  81 S15G21    29.98S
6HR MIN TEMP:  47; 6HR MAX TEMP:  54;

RANTOUL        PTCLDY    51  47  87 S7        30.04R
6HR MIN TEMP:  48; 6HR MAX TEMP:  51;

SPRINGFIELD    CLEAR     47  43  86 S8        30.01R
6HR MIN TEMP:  47; 6HR MAX TEMP:  53;

TAYLORVILLE    CLEAR     48  45  87 S7        30.03R
$$

...REGIONAL REPORTS...


CITY           SKY/WX    TMP DP  RH WIND       PRES   REMARKS
CHICAGO O`HARE CLOUDY    52  42  69 S13       29.91R
KANKAKEE       CLOUDY    50  44  78 S14       29.99S
MOLINE         CLEAR     54  45  71 S10       29.85S
MOUNT STERLING CLEAR     47  43  87 S8        29.93S
MOUNT VERNON   CLEAR     58  52  80 S9        30.05R
PITTSFIELD     CLEAR     49  45  85 SE6       29.96S
QUINCY         CLEAR     56  48  74 S12       29.91F
ROCKFORD       CLEAR     47  41  80 S10       29.89S
$$


CITY           SKY/WX    TMP DP  RH WIND       PRES   REMARKS
BURLINGTON     CLOUDY    54  48  80 S12       29.87R
CEDAR RAPIDS   CLOUDY    52  48  86 S13       29.80R
DES MOINES     MOCLDY    58  46  64 W3        29.77R
KIRKSVILLE     CLEAR     61  50  67 S14       29.86S
OTTUMWA        PTCLDY    57  50  77 S14       29.80S
ST LOUIS       PTCLDY    57  49  74 CALM      30.02R
$$


CITY           SKY/WX    TMP DP  RH WIND       PRES   REMARKS
TERRE HAUTE    CLOUDY    58  48  69 S17G25    30.07R
EVANSVILLE     CLEAR     58  50  75 S9        30.11R
INDIANAPOLIS   MOCLDY    54  45  71 S9        30.09R
LAFAYETTE      CLOUDY    56  46  69 S8        30.04R
MADISON        CLOUDY    41  37  86 NE3       29.87R
MILWAUKEE      MOCLDY    48  41  76 CALM      29.90R
$$






USA.gov is the U.S. government's official web portal to all federal, state and local government web resources and services.